K3TE Weather Reports


time (UTC)temp
C
wind
direction
speed
KPH
gust
KPH
rain 1hr
cm
rain 24hr
cm
rain mn
cm
humidity
%
barometer
mb
20260505171605 25 167 6.4 19.3 0.00 0.36 0.36 42 1011.0
20260505170059 25 151 8.0 25.7 0.00 0.36 0.36 46 1011.1
20260505164559 24 166 4.8 14.5 0.00 0.36 0.36 49 1011.2
20260505163100 23 250 1.6 8.0 0.00 0.36 0.36 48 1011.4
20260505161558 23 191 1.6 17.7 0.00 0.36 0.36 49 1011.7
20260505153100 22 327 4.8 14.5 0.00 0.36 0.36 51 1012.0
20260505151603 22 146 1.6 11.3 0.00 0.36 0.36 53 1012.0
20260505140109 19 207 4.8 16.1 0.00 0.36 0.36 64 1012.4
20260505124600 16 212 0.0 11.3 0.00 0.36 0.36 72 1012.8
20260505123111 16 0 1.6 11.3 0.00 0.36 0.36 74 1012.6
20260505121600 15 185 0.0 4.8 0.00 0.36 0.36 76 1012.2
20260505120128 15 163 1.6 9.7 0.00 0.36 0.36 80 1012.3
20260505114559 13 0 0.0 0.0 0.00 0.36 0.36 81 1012.2
20260505113058 13 0 0.0 0.0 0.00 0.36 0.36 85 1012.2
20260505111603 12 0 0.0 0.0 0.00 0.36 0.36 89 1012.0
20260505110114 11 0 0.0 0.0 0.00 0.36 0.36 92 1011.8
20260505101603 10 0 0.0 0.0 0.00 0.36 0.36 92 1011.7
20260505094557 11 0 0.0 0.0 0.00 0.36 0.36 91 1011.5
20260505093100 11 0 0.0 4.8 0.00 0.36 0.36 91 1011.4
20260505091600 10 135 0.0 3.2 0.03 0.36 0.36 92 1011.2
20260505090059 11 0 0.0 4.8 0.05 0.36 0.36 92 1011.3
20260505084604 11 140 1.6 8.0 0.33 0.36 0.36 92 1011.3
20260505083111 11 0 0.0 6.4 0.36 0.36 0.36 91 1011.3
20260505081608 11 328 0.0 4.8 0.33 0.33 0.33 90 1011.6
20260505080110 12 0 1.6 9.7 0.30 0.30 0.30 86 1011.8
20260505074559 13 205 3.2 4.8 0.03 0.03 0.03 76 1011.5
20260505073101 13 0 0.0 1.6 0.00 0.00 0.00 73 1011.3
20260505071558 13 0 0.0 3.2 0.00 0.00 0.00 74 1011.1
20260505070106 13 0 0.0 11.3 0.00 0.00 0.00 73 1011.2
20260505064648 13 155 1.6 6.4 0.00 0.00 0.00 70 1011.3
20260505063106 14 180 0.0 4.8 0.00 0.00 0.00 66 1011.3
20260505061601 14 172 3.2 11.3 0.00 0.00 0.00 65 1011.3
20260505060104 14 172 3.2 9.7 0.00 0.00 0.00 64 1011.4
20260505054604 14 179 3.2 9.7 0.00 0.00 0.00 64 1011.4
20260505053058 14 0 1.6 11.3 0.00 0.00 0.00 63 1011.4
20260505051601 14 174 1.6 12.9 0.00 0.00 0.00 62 1011.3
20260505050216 15 190 3.2 9.7 0.00 0.00 0.00 61 1011.3
20260505041608 15 143 3.2 16.1 0.00 0.00 0.00 60 1011.2
20260505040104 14 136 4.8 12.9 0.00 0.00 0.00 59 1011.1
20260505034613 14 203 0.0 6.4 0.00 0.00 0.00 59 1011.2
20260505033100 15 0 1.6 9.7 0.00 0.00 0.00 57 1011.1
20260505031603 15 178 1.6 12.9 0.00 0.00 0.00 56 1011.2
20260505030127 15 170 3.2 11.3 0.00 0.00 0.00 55 1011.2
20260505024611 15 182 4.8 16.1 0.00 0.00 0.00 54 1011.2
20260505023058 15 198 3.2 14.5 0.00 0.00 0.00 53 1011.3
20260505021558 16 0 3.2 16.1 0.00 0.00 0.00 52 1011.4
20260505020109 16 170 4.8 19.3 0.00 0.00 0.00 51 1011.4
20260505014604 16 157 6.4 19.3 0.00 0.00 0.00 51 1011.4
20260505013058 16 167 6.4 14.5 0.00 0.00 0.00 51 1011.4
20260505011602 16 190 6.4 16.1 0.00 0.00 0.00 50 1011.3
20260505010113 16 207 3.2 14.5 0.00 0.00 0.00 50 1011.1
20260505004631 17 192 4.8 19.3 0.00 0.00 0.00 49 1011.0
20260505003102 17 200 6.4 19.3 0.00 0.00 0.00 49 1010.8
20260505001603 17 184 6.4 14.5 0.00 0.00 0.00 48 1010.7
20260505000113 17 176 8.0 19.3 0.00 0.00 0.00 47 1010.6
20260504234600 18 148 6.4 19.3 0.00 0.00 0.00 45 1010.4
20260504233109 18 189 6.4 19.3 0.00 0.00 0.00 44 1010.3
20260504231626 18 194 6.4 14.5 0.00 0.00 0.00 45 1010.2
20260504230058 18 168 6.4 27.4 0.00 0.00 0.00 44 1010.1
20260504224618 18 148 8.0 20.9 0.00 0.00 0.00 44 1010.0
20260504223058 18 176 8.0 17.7 0.00 0.00 0.00 43 1010.0
20260504221646 19 153 8.0 17.7 0.00 0.00 0.00 43 1010.0
20260504220059 19 184 12.9 27.4 0.00 0.00 0.00 43 1010.2
20260504214604 19 0 4.8 25.7 0.00 0.00 0.00 42 1010.2
20260504213103 20 139 4.8 19.3 0.00 0.00 0.00 41 1010.2
20260504211600 19 191 4.8 17.7 0.00 0.00 0.00 44 1010.2
20260504210058 19 141 8.0 24.1 0.00 0.00 0.00 43 1010.3
20260504204600 20 130 11.3 22.5 0.00 0.00 0.00 42 1010.3
20260504203058 20 324 3.2 11.3 0.00 0.00 0.00 41 1010.5
20260504201611 20 8 1.6 22.5 0.00 0.00 0.00 40 1010.6
20260504200104 20 132 1.6 19.3 0.00 0.00 0.00 42 1010.9
20260504194605 20 237 4.8 22.5 0.00 0.00 0.00 43 1011.0
20260504193100 20 279 3.2 20.9 0.00 0.00 0.00 39 1011.0
20260504191621 20 147 3.2 20.9 0.00 0.00 0.00 43 1011.1
20260504190109 20 270 4.8 32.2 0.00 0.00 0.00 40 1011.3
20260504184609 20 274 3.2 22.5 0.00 0.00 0.00 39 1011.5
20260504183100 19 147 6.4 24.1 0.00 0.00 0.00 45 1011.6
20260504181606 19 212 6.4 24.1 0.00 0.00 0.00 42 1011.9
20260504180059 19 159 8.0 27.4 0.00 0.00 0.00 39 1012.2
20260504174559 19 220 6.4 24.1 0.00 0.00 0.00 43 1012.2
20260504173105 19 131 3.2 12.9 0.00 0.00 0.00 40 1012.3